{"data":{"norad_id":47799,"epoch":"2026-05-25T05:22:43.951584Z","epoch_age_seconds":54925,"freshness":"FRESH","line1":"1 47799U 21018N   26145.22411981  .00001902  00000+0  73034-4 0  9996","line2":"2 47799  53.1582 236.1812 0001440  94.4527 265.6639 15.31704328288587","mean_motion":15.31704328,"eccentricity":0.000144,"inclination_deg":53.1582,"raan_deg":236.1812,"arg_perigee_deg":94.4527,"mean_anomaly_deg":265.6639,"bstar":7.3034e-5,"rev_number":28858,"period_min":94.012922316428,"perigee_km":469.74085728374,"apogee_km":471.71333014273,"semimajor_km":6848.8640937132,"source":"CELESTRAK","updated_at":"2026-05-25T13:38:16.599717Z"}}